Погода в Берни

Австралия     41°03′27″S   145°54′06″E
темп.,
°C
ветер,
м/с
пор.,
м/с
влажн.,
%
обл.,
%
осадки,
мм/ч
давл.,
гПа
погр.,
м
25 января, вт
вт2523:00+17ююв3383100 0.0 101268
02:00+17юв568821 0.0 1012189
05:00+16юв5690100 0.0 1011233
08:00+17юв4584100 0.0 1012251
11:00+18в347960 0.0 1013305
14:00+19св337712 0.0 1012305
17:00+20ссв237572 0.0 1011296
20:00+19с018157 0.0 101240
26 января, ср
ср2623:00+18юв348434 0.0 101380
02:00+17вюв6888100 0.0 1013302
05:00+17вюв6108465 0.0 1013449
08:00+17вюв6108678 0.0 1015549
11:00+18в6108311 0.0 1016683
14:00+19всв711799 0.0 1015575
17:00+20всв8127249 0.0 1013453
20:00+19всв914785 0.0 1014504
27 января, чт
чт2723:00+18в101484100 0.0 1014830
02:00+18в101386100 0.1 1013977
05:00+18в91389100 0.3 1012837
08:00+18вюв91491100 0.4 1012835
11:00+19вюв71192100 1.9 1012554
14:00+19в689399 0.7 1011352
17:00+19вюв5694100 1.9 1009219
20:00+19в599392 0.0 1009287
28 января, пт
пт2823:00+19вюв4693100 0.3 1009144
02:00+19вюв579436 0.3 1008158
05:00+19вюв469692 0.3 1007223
08:00+19в349695 0.0 1009121
11:00+19ююв129648 0.3 101084
14:00+21ссз2388100 0.2 1009365
17:00+20сз6886100 0.9 1010320
20:00+21зсз347895 0.0 101056
29 января, сб
сб2923:00+18юз23895 0.0 101360
02:00+17ююв33901 0.0 1013129
05:00+17юв46926 0.0 1014236
08:00+18вюв579014 0.0 1016361
11:00+19вюв228653 0.3 1018307
14:00+20сз338121 0.1 1017323
17:00+21зсз557917 0.1 1016458
20:00+19с5791100 0.1 1018295